EcAMSat
1 43019U 98067NG 20002.64619577 .00005377 00000-0 62387-4 0 9998
2 43019 51.6413 56.4801 0004343 127.5442 232.5948 15.63615289206672
PICSAT
1 43132U 18004X 20002.30131791 .00000921 00000-0 40982-4 0 9994
2 43132 97.4679 74.5379 0008045 282.8862 77.1477 15.24002553109599
AO-92
1 43137U 18004AC 20002.77215122 .00000712 00000-0 32541-4 0 9991
2 43137 97.4666 74.9188 0007626 283.5150 76.5237 15.23800098109657
TianYi 2
1 43155U 18008A 20002.79306774 .00000576 00000-0 37788-4 0 9997
2 43155 97.4681 75.9789 0017807 8.0338 128.3128 15.11399848107748
Zhou Enlai
1 43156U 18008B 20002.77397919 .00000162 00000-0 13518-4 0 9993
2 43156 97.4726 75.8269 0015054 7.7002 140.3346 15.10913828107708
TianYi 6
1 43158U 18008D 20002.80261332 .00000903 00000-0 58599-4 0 9999
2 43158 97.4675 75.1172 0013546 5.8335 112.5492 15.10481185107665
S-Net G
1 43186U 18014G 20002.31843841 -.00000312 00000-0 -22182-4 0 9999
2 43186 97.7028 272.7805 0012489 66.3392 293.9139 14.96733873104698
S-Net H
1 43187U 18014H 20002.78622999 -.00000355 00000-0 -25983-4 0 9999
2 43187 97.7026 273.2243 0012455 64.8742 295.3770 14.96733619104767
S-Net J
1 43188U 18014J 20001.85011811 -.00000261 00000-0 -17742-4 0 9992
2 43188 097.7030 272.3259 0012526 067.9051 292.3500 14.96733822104625
S-Net K
1 43189U 18014K 20002.78643362 -.00000363 00000-0 -26665-4 0 9995
2 43189 97.7025 273.2209 0012451 64.8585 295.3927 14.96732867103319
FMN 1
1 43192U 18015A 20002.83929818 .00001429 00000-0 60116-4 0 9990
2 43192 97.4224 133.4780 0014889 320.6967 191.5337 15.24948530106500
Shaonian Xing
1 43199U 18015H 20002.65576141 .00001086 00000-0 45914-4 0 9992
2 43199 97.4010 131.9857 0016191 332.6631 142.0228 15.25284523106536
1KUNS-PF
1 43466U 98067NP 20002.52624485 .00032135 00000-0 20555-3 0 9997
2 43466 51.6348 44.1845 0001058 24.3699 335.7351 15.76020018 94005
UBAKUSAT
1 43467U 98067NQ 20002.74175942 .00013350 00000-0 12307-3 0 9995
2 43467 51.6360 54.6957 0001893 84.7339 275.3873 15.67975168 93897
Irazu
1 43468U 98067NR 20002.80463385 .00086504 00000-0 33260-3 0 9996
2 43468 51.6344 31.6630 0003401 31.9502 328.1708 15.86615065194182
EnduroSat One
1 43551U 98067NZ 20002.73611845 .00019017 00000-0 16163-3 0 9995
2 43551 51.6357 56.1529 0003627 174.9648 185.1387 15.69644529 84109
EQUISat
1 43552U 98067PA 20001.60753207 .00012481 00000-0 12068-3 0 9998
2 43552 51.6378 65.9331 0004542 167.4546 192.6564 15.66855858 83838
UiTMSat 1
1 43589U 98067PD 20002.57871211 .00015938 00000-0 14708-3 0 9994
2 43589 51.6348 61.0559 0003678 181.7588 178.3396 15.67771716 79726
Maya 1
1 43590U 98067PE 20001.87077731 .00015027 00000-0 13907-3 0 9992
2 43590 51.6349 64.5858 0003838 179.4430 180.6571 15.67756485 79544
Bhutan 1
1 43591U 98067PF 20002.17238826 .00016446 00000-0 15118-3 0 9993
2 43591 51.6359 62.8936 0003930 181.0627 179.0362 15.67839048 79596
SiriusSat 1
1 43595U 98067PG 20002.72989988 .00012804 00000-0 12522-3 0 9990
2 43595 51.6352 62.8291 0002429 130.6416 229.4792 15.66544635 78821
SiriusSat 2
1 43596U 98067PH 20002.39799682 .00013400 00000-0 13157-3 0 9992
2 43596 51.6361 65.1711 0002861 130.8049 229.3195 15.66396580 78762
Tanusha-3
1 43597U 98067PJ 20002.16398795 .00023120 00000-0 19202-3 0 9995
2 43597 51.6337 61.2428 0001777 145.4277 214.6836 15.70066227 78797
SurfSat
1 43614U 18070B 20002.72988834 .00001948 00000-0 51588-4 0 9990
2 43614 93.0372 85.6060 0012882 260.0967 99.8833 15.38402384 72849
CP-7 DAVE
1 43615U 18070C 20002.16231381 .00001843 00000-0 48981-4 0 9994
2 43615 93.0376 85.3679 0013019 262.0859 97.8917 15.38291505 72754
ELFIN-B
1 43616U 18070D 20002.78439421 .00002679 00000-0 68821-4 0 9991
2 43616 93.0333 85.5347 0013601 262.1552 97.8159 15.39288069 72873
ELFIN-A
1 43617U 18070E 20002.18396081 .00002855 00000-0 73079-4 0 9997
2 43617 93.0389 85.6577 0012899 260.9102 99.0693 15.39401840 72787
STARS-Me Mother
1 43640U 98067PQ 20001.92651789 .00007490 00000-0 90658-4 0 9999
2 43640 51.6368 75.5289 0004870 114.6606 245.4895 15.61808930 70518
CubeBel 1
1 43666U 18083E 20002.81975326 .00000841 00000-0 44736-4 0 9991
2 43666 97.5045 30.8117 0013998 215.5505 318.4647 15.17926806 65335
Changshagaoxin
1 43669U 18083H 20002.81243482 .00000558 00000-0 31614-4 0 9991
2 43669 97.4919 29.5065 0010186 205.4599 154.6133 15.17044337 65263
Ten-Koh
1 43677U 18084G 20002.77180081 .00000017 00000-0 76579-5 0 9991
2 43677 97.8679 120.4365 0015753 353.7437 6.3582 14.90232599 64119
PO-101
1 43678U 18084H 20002.84072699 .00000308 00000-0 36358-4 0 9998
2 43678 97.8682 121.4628 0010411 16.1375 344.0156 14.91599293 64188
IRVINE 01
1 43693U 18088D 20001.89280859 .00002039 00000-0 86885-4 0 9995
2 43693 085.0353 187.8438 0017828 181.4092 178.7103 15.22138580063350
QO-100
1 43700U 18090A 20002.83087057 .00000155 00000-0 00000 0 0 9994
2 43700 0.0168 13.2016 0001806 299.0845 114.5706 1.00265404 4286
Reaktor Hello World
1 43743U 18096AA 20002.77083372 .00000789 00000-0 32472-4 0 9992
2 43743 97.4404 77.3690 0018157 2.3224 147.1009 15.27018592 60950
MinXSS-2
1 43758U 18099A 20002.80750189 .00000551 00000-0 54774-4 0 9998
2 43758 97.7262 77.3180 0016137 31.3884 328.8296 14.95543376 59046
AO-95
1 43770U 18099N 20002.77596897 -.00000148 00000-0 -82529-5 0 9996
2 43770 97.7262 76.9059 0015413 38.2357 321.9953 14.94883522 59017
RANGE-B
1 43772U 18099Q 20002.74837062 .00000708 00000-0 69824-4 0 9999
2 43772 97.7322 77.2092 0014621 26.8655 333.3320 14.95033427 59007
RANGE-A
1 43773U 18099R 20002.16333724 .00000115 00000-0 15779-4 0 9994
2 43773 97.7209 76.0652 0014211 28.7663 331.4338 14.94889719 58915
MOVE-II
1 43780U 18099Y 20002.76761424 .00000231 00000-0 26221-4 0 9993
2 43780 97.7259 77.0113 0014310 36.7696 323.4503 14.95241389 59008
SNUSat 2
1 43782U 18099AA 20002.16519734 .00000119 00000-0 16018-4 0 9992
2 43782 97.7260 76.4557 0013401 28.7489 331.4468 14.95158947 58924
SnugLite
1 43784U 18099AC 20002.14400389 .00000574 00000-0 57318-4 0 9990
2 43784 97.7223 76.3090 0015806 35.6882 324.5392 14.95247361 58930
ITASat 1
1 43786U 18099AE 20002.14232313 .00000480 00000-0 48783-4 0 9994
2 43786 97.7276 76.5806 0015878 34.6203 325.6048 14.95236205 58937
EAGLET 1
1 43790U 18099AJ 20002.17674355 -.00000233 00000-0 -15702-4 0 9991
2 43790 97.7267 76.7951 0014398 39.0337 321.1920 14.95613146 58649
ESEO
1 43792U 18099AL 20002.77993662 -.00000395 00000-0 -30399-4 0 9992
2 43792 97.7242 77.2878 0014087 34.2377 325.9749 14.95557451 58797
CSIM
1 43793U 18099AM 20001.86415283 .00000358 00000-0 37177-4 0 9998
2 43793 097.7219 076.2933 0013445 035.3476 324.8633 14.95880035058632
Astrocast 0.1
1 43798U 18099AS 20002.78779286 -.00000189 00000-0 -11746-4 0 9999
2 43798 97.7255 77.4661 0012753 18.2632 341.9045 14.95799378 59034
JO-97
1 43803U 18099AX 20002.77757642 -.00000226 00000-0 -15209-4 0 9997
2 43803 97.7236 77.0690 0015870 32.6831 327.5369 14.95392327 59023
Suomi 100
1 43804U 18099AY 20002.17522249 -.00000171 00000-0 -10200-4 0 9990
2 43804 97.7235 76.4698 0016011 34.7908 325.4356 14.95386743 58948
Al Farabi 2
1 43805U 18099AZ 20002.83039278 .00000338 00000-0 35703-4 0 9997
2 43805 97.7241 77.1588 0016001 33.1129 327.1090 14.95478276 59048
PWSat 2
1 43814U 18099BJ 20001.93518541 .00014687 00000-0 10270-2 0 9994
2 43814 097.7816 080.3393 0003866 073.3994 286.7655 15.05394534058465
